Location: Foulognes
(49.1413°N, 0.8183°W)
Time: 19:07:54
(UTC+00:00)

Cosmos 1833 Rocket - Pass Details

Date: 21 October 2019
Orbit: 833 x 839 km, 71.0° (Epoch: 19 November)

Event Time Altitude Azimuth Distance (km) Brightness Sun altitude
Rises 17:24:38 0° 333° (NNW) 3,393 6.1 -4.4°
Reaches altitude 10° 17:27:11 10° 340° (NNW) 2,456 5.3 -4.8°
Maximum altitude 17:32:37 48° 54° (NE) 1,088 3.0 -5.7°
Drops below altitude 10° 17:38:02 10° 128° (SE) 2,446 4.7 -6.5°
Sets 17:40:33 0° 134° (SE) 3,378 5.5 -6.9°
